Location: Altenst�hlen
(53.5567°N, 8.9425°E)
Time: 11:34:12
(UTC+00:00)

Cosmos 1892 - Pass Details

Date: 23 October 2019
Orbit: 503 x 526 km, 82.5° (Epoch: 13 November)

Event Time Altitude Azimuth Distance (km) Brightness Sun altitude
Rises 18:31:20 0° 347° (NNW) 2,638 6.6 -21.5°
Reaches altitude 10° 18:33:29 10° 346° (NNW) 1,743 5.6 -21.8°
Maximum altitude 18:37:18 78° 262° (W) 527 2.7 -22.3°
Enters shadow 18:37:41 68° 205° (SSW) 552 2.7 -22.4°
